Location: New Mesquite
(33.1168°N, 96.4336°W)
Time: 09:13:55
(UTC+00:00)

OPS-SAT - Pass Details

Date: 14 October 2022
Orbit: 486 x 504 km, 97.5° (Epoch: 01 December)

Event Time Altitude Azimuth Distance (km) Brightness Sun altitude
Rises 11:31:18 0° 155° (SSE) 2,572 ? -12.9°
Maximum altitude 11:36:55 45° 75° (ENE) 691 ? -11.8°
Drops below altitude 10° 11:40:28 10° 2° (N) 1,722 ? -11.0°
Sets 11:42:37 0° 356° (N) 2,614 ? -10.6°
